| time (UTC) | temp C | wind direction | speed KPH | gust KPH | rain 1hr cm | rain 24hr cm | rain mn cm | humidity % | barometer mb |
| 20260906100302 | 27 | 250 | 14.5 | 0.0 | 0.00 | 0.00 | 0.00 | 34 | 1020.0 |
| 20260906094802 | 26 | 190 | 9.7 | 0.0 | 0.00 | 0.00 | 0.00 | 39 | 1020.0 |
| 20260906093302 | 26 | 190 | 9.7 | 0.0 | 0.00 | 0.00 | 0.00 | 39 | 1020.0 |
| 20260906091804 | 25 | 4.8 | 0.0 | 0.00 | 0.00 | 0.00 | 39 | 1020.0 | |
| 20260906090304 | 25 | 4.8 | 0.0 | 0.00 | 0.00 | 0.00 | 39 | 1020.0 | |
| 20260906084802 | 25 | 3.2 | 0.0 | 0.00 | 0.00 | 0.00 | 36 | 1020.0 | |
| 20260906083302 | 25 | 3.2 | 0.0 | 0.00 | 0.00 | 0.00 | 36 | 1020.0 | |
| 20260906081802 | 23 | 3.2 | 0.0 | 0.00 | 0.00 | 0.00 | 41 | 1021.0 | |
| 20260906080302 | 23 | 3.2 | 0.0 | 0.00 | 0.00 | 0.00 | 41 | 1021.0 | |
| 20260906074801 | 22 | 50 | 8.0 | 0.0 | 0.00 | 0.00 | 0.00 | 44 | 1021.0 |
| 20260906073302 | 22 | 50 | 8.0 | 0.0 | 0.00 | 0.00 | 0.00 | 44 | 1021.0 |
| 20260906071803 | 22 | 80 | 9.7 | 0.0 | 0.00 | 0.00 | 0.00 | 50 | 1020.0 |
| 20260906070302 | 22 | 80 | 9.7 | 0.0 | 0.00 | 0.00 | 0.00 | 50 | 1020.0 |
| 20260906064801 | 22 | 70 | 12.9 | 0.0 | 0.00 | 0.00 | 0.00 | 50 | 1020.0 |
| 20260906063302 | 22 | 70 | 12.9 | 0.0 | 0.00 | 0.00 | 0.00 | 50 | 1020.0 |
| 20260906061915 | 21 | 90 | 11.3 | 0.0 | 0.00 | 0.00 | 0.00 | 53 | 1020.0 |
| 20260906060302 | 21 | 90 | 11.3 | 0.0 | 0.00 | 0.00 | 0.00 | 53 | 1020.0 |
| 20260906054827 | 20 | 110 | 12.9 | 0.0 | 0.00 | 0.00 | 0.00 | 56 | 1020.0 |
| 20260906053302 | 20 | 110 | 12.9 | 0.0 | 0.00 | 0.00 | 0.00 | 56 | 1020.0 |
| 20260906051802 | 18 | 120 | 9.7 | 0.0 | 0.00 | 0.00 | 0.00 | 64 | 1019.0 |
| 20260906050415 | 18 | 120 | 9.7 | 0.0 | 0.00 | 0.00 | 0.00 | 64 | 1019.0 |
| 20260906044915 | 18 | 100 | 11.3 | 0.0 | 0.00 | 0.00 | 0.00 | 60 | 1019.0 |
| 20260906043403 | 17 | 80 | 14.5 | 0.0 | 0.00 | 0.00 | 0.00 | 64 | 1018.0 |
| 20260906041916 | 17 | 80 | 14.5 | 0.0 | 0.00 | 0.00 | 0.00 | 64 | 1018.0 |
| 20260906040322 | 17 | 80 | 14.5 | 0.0 | 0.00 | 0.00 | 0.00 | 64 | 1018.0 |
| 20260906034815 | 17 | 90 | 20.9 | 0.0 | 0.00 | 0.00 | 0.00 | 60 | 1018.0 |
| 20260906033416 | 18 | 70 | 22.5 | 0.0 | 0.00 | 0.00 | 0.00 | 60 | 1018.0 |
| 20260906031915 | 18 | 70 | 22.5 | 0.0 | 0.00 | 0.00 | 0.00 | 60 | 1018.0 |
| 20260906030415 | 18 | 90 | 20.9 | 0.0 | 0.00 | 0.00 | 0.00 | 60 | 1017.0 |
| 20260906024829 | 18 | 90 | 20.9 | 0.0 | 0.00 | 0.00 | 0.00 | 60 | 1017.0 |
| 20260906023302 | 18 | 90 | 20.9 | 0.0 | 0.00 | 0.00 | 0.00 | 60 | 1017.0 |
| 20260906021809 | 20 | 80 | 20.9 | 0.0 | 0.00 | 0.00 | 0.00 | 56 | 1017.0 |
| 20260906020303 | 20 | 80 | 20.9 | 0.0 | 0.00 | 0.00 | 0.00 | 56 | 1017.0 |
| 20260906014803 | 20 | 70 | 14.5 | 0.0 | 0.00 | 0.00 | 0.00 | 64 | 1017.0 |
| 20260906013415 | 21 | 70 | 17.7 | 0.0 | 0.00 | 0.00 | 0.00 | 60 | 1016.0 |
| 20260906011802 | 21 | 70 | 17.7 | 0.0 | 0.00 | 0.00 | 0.00 | 60 | 1016.0 |
| 20260906010301 | 21 | 70 | 17.7 | 0.0 | 0.00 | 0.00 | 0.00 | 60 | 1016.0 |
| 20260906004916 | 21 | 80 | 20.9 | 0.0 | 0.00 | 0.00 | 0.00 | 60 | 1015.0 |
| 20260906003416 | 21 | 80 | 17.7 | 0.0 | 0.00 | 0.00 | 0.00 | 60 | 1015.0 |
| 20260906001915 | 21 | 80 | 17.7 | 0.0 | 0.00 | 0.00 | 0.00 | 60 | 1015.0 |
| 20260906000404 | 22 | 90 | 16.1 | 0.0 | 0.00 | 0.00 | 0.00 | 57 | 1015.0 |
| 20260905234812 | 22 | 90 | 16.1 | 0.0 | 0.00 | 0.00 | 0.00 | 57 | 1015.0 |
| 20260905233302 | 22 | 90 | 16.1 | 0.0 | 0.00 | 0.00 | 0.00 | 57 | 1015.0 |
| 20260905231915 | 22 | 80 | 16.1 | 0.0 | 0.00 | 0.00 | 0.00 | 57 | 1015.0 |
| 20260905230334 | 22 | 80 | 16.1 | 0.0 | 0.00 | 0.00 | 0.00 | 57 | 1015.0 |
| 20260905224915 | 22 | 40 | 16.1 | 0.0 | 0.00 | 0.00 | 0.00 | 61 | 1015.0 |
| 20260905223316 | 22 | 40 | 16.1 | 0.0 | 0.00 | 0.00 | 0.00 | 61 | 1015.0 |
| 20260905221900 | 22 | 3.2 | 0.0 | 0.00 | 0.00 | 0.00 | 53 | 1015.0 | |
| 20260905220415 | 22 | 330 | 8.0 | 0.0 | 0.00 | 0.00 | 0.00 | 57 | 1014.0 |
| 20260905214915 | 22 | 330 | 8.0 | 0.0 | 0.00 | 0.00 | 0.00 | 57 | 1014.0 |
| 20260905213302 | 22 | 330 | 8.0 | 0.0 | 0.00 | 0.00 | 0.00 | 57 | 1014.0 |
| 20260905211802 | 22 | 240 | 8.0 | 0.0 | 0.00 | 0.00 | 0.00 | 57 | 1014.0 |
| 20260905210302 | 22 | 240 | 8.0 | 0.0 | 0.00 | 0.00 | 0.00 | 57 | 1014.0 |
| 20260905204812 | 22 | 220 | 9.7 | 0.0 | 0.00 | 0.00 | 0.00 | 65 | 1014.0 |
| 20260905203302 | 22 | 220 | 9.7 | 0.0 | 0.00 | 0.00 | 0.00 | 65 | 1014.0 |
| 20260905201802 | 22 | 230 | 8.0 | 0.0 | 0.00 | 0.00 | 0.00 | 61 | 1014.0 |
| 20260905200416 | 22 | 250 | 4.8 | 0.0 | 0.00 | 0.00 | 0.00 | 53 | 1014.0 |
| 20260905194907 | 22 | 250 | 4.8 | 0.0 | 0.00 | 0.00 | 0.00 | 53 | 1014.0 |
| 20260905193302 | 22 | 250 | 4.8 | 0.0 | 0.00 | 0.00 | 0.00 | 53 | 1014.0 |
| 20260905191831 | 22 | 0 | 0.0 | 0.0 | 0.00 | 0.00 | 0.00 | 53 | 1014.0 |
| 20260905190302 | 22 | 0 | 0.0 | 0.0 | 0.00 | 0.00 | 0.00 | 53 | 1014.0 |
| 20260905184803 | 23 | 210 | 3.2 | 0.0 | 0.00 | 0.00 | 0.00 | 47 | 1014.0 |
| 20260905183307 | 23 | 210 | 3.2 | 0.0 | 0.00 | 0.00 | 0.00 | 47 | 1014.0 |
| 20260905181802 | 25 | 210 | 4.8 | 0.0 | 0.00 | 0.00 | 0.00 | 44 | 1014.0 |
| 20260905180302 | 25 | 210 | 4.8 | 0.0 | 0.00 | 0.00 | 0.00 | 44 | 1014.0 |
| 20260905174802 | 25 | 210 | 8.0 | 0.0 | 0.00 | 0.00 | 0.00 | 44 | 1014.0 |
| 20260905173302 | 25 | 210 | 8.0 | 0.0 | 0.00 | 0.00 | 0.00 | 44 | 1014.0 |
| 20260905171812 | 26 | 210 | 4.8 | 0.0 | 0.00 | 0.00 | 0.00 | 42 | 1014.0 |
| 20260905170302 | 26 | 210 | 4.8 | 0.0 | 0.00 | 0.00 | 0.00 | 42 | 1014.0 |
| 20260905164802 | 27 | 240 | 8.0 | 0.0 | 0.00 | 0.00 | 0.00 | 42 | 1014.0 |
| 20260905163303 | 27 | 240 | 8.0 | 0.0 | 0.00 | 0.00 | 0.00 | 42 | 1014.0 |
| 20260905161803 | 28 | 250 | 12.9 | 0.0 | 0.00 | 0.00 | 0.00 | 37 | 1014.0 |
| 20260905160302 | 28 | 250 | 12.9 | 0.0 | 0.00 | 0.00 | 0.00 | 37 | 1014.0 |
| 20260905154818 | 31 | 270 | 14.5 | 0.0 | 0.00 | 0.00 | 0.00 | 29 | 1014.0 |
| 20260905153302 | 31 | 270 | 14.5 | 0.0 | 0.00 | 0.00 | 0.00 | 29 | 1014.0 |
| 20260905151802 | 32 | 260 | 14.5 | 0.0 | 0.00 | 0.00 | 0.00 | 26 | 1014.0 |
| 20260905150303 | 32 | 260 | 14.5 | 0.0 | 0.00 | 0.00 | 0.00 | 26 | 1014.0 |
| 20260905144802 | 32 | 260 | 14.5 | 0.0 | 0.00 | 0.00 | 0.00 | 24 | 1014.0 |
| 20260905143302 | 32 | 260 | 14.5 | 0.0 | 0.00 | 0.00 | 0.00 | 24 | 1014.0 |
| 20260905141802 | 32 | 230 | 12.9 | 0.0 | 0.00 | 0.00 | 0.00 | 24 | 1014.0 |
| 20260905140302 | 32 | 230 | 12.9 | 0.0 | 0.00 | 0.00 | 0.00 | 24 | 1014.0 |
| 20260905134912 | 32 | 250 | 12.9 | 0.0 | 0.00 | 0.00 | 0.00 | 24 | 1014.0 |
| 20260905133302 | 32 | 250 | 12.9 | 0.0 | 0.00 | 0.00 | 0.00 | 24 | 1014.0 |
| 20260905131808 | 32 | 260 | 16.1 | 0.0 | 0.00 | 0.00 | 0.00 | 28 | 1014.0 |
| 20260905130323 | 32 | 260 | 16.1 | 0.0 | 0.00 | 0.00 | 0.00 | 28 | 1014.0 |
| 20260905124803 | 32 | 250 | 22.5 | 0.0 | 0.00 | 0.00 | 0.00 | 24 | 1015.0 |
| 20260905123303 | 32 | 250 | 22.5 | 0.0 | 0.00 | 0.00 | 0.00 | 24 | 1015.0 |
| 20260905121829 | 32 | 290 | 17.7 | 0.0 | 0.00 | 0.00 | 0.00 | 26 | 1015.0 |
| 20260905120302 | 32 | 290 | 17.7 | 0.0 | 0.00 | 0.00 | 0.00 | 26 | 1015.0 |
| 20260905114802 | 32 | 300 | 16.1 | 0.0 | 0.00 | 0.00 | 0.00 | 24 | 1016.0 |
| 20260905113302 | 32 | 300 | 16.1 | 0.0 | 0.00 | 0.00 | 0.00 | 24 | 1016.0 |
| 20260905111820 | 32 | 300 | 14.5 | 0.0 | 0.00 | 0.00 | 0.00 | 27 | 1016.0 |
| 20260905110302 | 32 | 300 | 14.5 | 0.0 | 0.00 | 0.00 | 0.00 | 27 | 1016.0 |
| 20260905104802 | 32 | 270 | 16.1 | 0.0 | 0.00 | 0.00 | 0.00 | 27 | 1016.0 |
| 20260905103302 | 32 | 270 | 16.1 | 0.0 | 0.00 | 0.00 | 0.00 | 27 | 1016.0 |
| 20260905101802 | 32 | 260 | 14.5 | 0.0 | 0.00 | 0.00 | 0.00 | 27 | 1016.0 |